• Em Portugal
  • Lista de países
  • Para 7 dias
  • Temperatura da água
  • Mapas de satélite
  • Mapa do tempo
  • Widgets de tempo
  • user-avatar
    Iniciar Sessão

    Previsão horária em Mendoza

    Hoje, 11 Dezembro, Segunda-feira

    Tempo Temperatura Precipitação Vento Pressão Humidade
    00:00 +27°C° 0 mm 2 m/s 700 mmHg 43%
    01:00 +26°C° 0 mm 2 m/s 700 mmHg 45%
    02:00 +26°C° 0 mm 2 m/s 700 mmHg 47%
    03:00 +25°C° 0 mm 2 m/s 699 mmHg 48%
    04:00 +25°C° 0 mm 2 m/s 699 mmHg 50%
    05:00 +25°C° 0 mm 2 m/s 699 mmHg 48%
    06:00 +26°C° 0 mm 2 m/s 699 mmHg 46%
    07:00 +26°C° 0 mm 3 m/s 699 mmHg 44%
    08:00 +28°C° 0 mm 3 m/s 699 mmHg 42%
    09:00 +29°C° 0 mm 3 m/s 699 mmHg 39%
    10:00 +30°C° 0 mm 3 m/s 699 mmHg 36%
    11:00 +32°C° 0,1 mm 4 m/s 698 mmHg 34%
    12:00 +33°C° 0,1 mm 4 m/s 697 mmHg 33%
    13:00 +34°C° 0,1 mm 4 m/s 697 mmHg 31%
    14:00 +34°C° 0,2 mm 4 m/s 696 mmHg 30%
    15:00 +34°C° 0,2 mm 4 m/s 696 mmHg 30%
    16:00 +35°C° 0,2 mm 4 m/s 695 mmHg 30%
    17:00 +34°C° 0,2 mm 4 m/s 695 mmHg 32%
    18:00 +33°C° 0,2 mm 3 m/s 695 mmHg 33%
    19:00 +31°C° 0,2 mm 2 m/s 695 mmHg 35%
    20:00 +30°C° 0,1 mm 2 m/s 696 mmHg 37%
    21:00 +30°C° 0,1 mm 2 m/s 696 mmHg 39%
    22:00 +29°C° 0,1 mm 2 m/s 696 mmHg 40%
    23:00 +29°C° 0 mm 2 m/s 696 mmHg 41%

    Amanhã, 12 Dezembro, Terça-feira

    Tempo Temperatura Precipitação Vento Pressão Humidade
    00:00 +28°C° 0 mm 2 m/s 695 mmHg 41%
    01:00 +27°C° 0 mm 2 m/s 695 mmHg 42%
    02:00 +27°C° 0 mm 2 m/s 695 mmHg 43%
    03:00 +26°C° 0 mm 2 m/s 695 mmHg 43%
    04:00 +26°C° 0 mm 2 m/s 695 mmHg 44%
    05:00 +27°C° 0 mm 2 m/s 695 mmHg 40%
    06:00 +28°C° 0 mm 2 m/s 696 mmHg 37%
    07:00 +29°C° 0 mm 2 m/s 696 mmHg 34%
    08:00 +30°C° 0 mm 2 m/s 696 mmHg 33%
    09:00 +31°C° 0 mm 2 m/s 696 mmHg 32%
    10:00 +33°C° 0 mm 3 m/s 696 mmHg 31%
    11:00 +34°C° 0,1 mm 3 m/s 696 mmHg 29%
    12:00 +35°C° 0,1 mm 3 m/s 695 mmHg 28%
    13:00 +36°C° 0,1 mm 3 m/s 695 mmHg 27%
    14:00 +36°C° 0,2 mm 3 m/s 695 mmHg 27%
    15:00 +36°C° 0,2 mm 3 m/s 694 mmHg 26%
    16:00 +36°C° 0,2 mm 3 m/s 694 mmHg 26%
    17:00 +35°C° 0,2 mm 3 m/s 694 mmHg 28%
    18:00 +34°C° 0,2 mm 3 m/s 695 mmHg 30%
    19:00 +33°C° 0,2 mm 4 m/s 695 mmHg 33%
    20:00 +32°C° 0,3 mm 5 m/s 696 mmHg 35%
    21:00 +32°C° 0,3 mm 6 m/s 696 mmHg 38%
    22:00 +30°C° 0,3 mm 7 m/s 697 mmHg 40%
    23:00 +28°C° 0,2 mm 7 m/s 696 mmHg 49%

    Depois de amanhã, 13 Dezembro, Quarta-feira

    Tempo Temperatura Precipitação Vento Pressão Humidade
    00:00 +26°C° 0,2 mm 7 m/s 696 mmHg 57%
    01:00 +23°C° 0,2 mm 7 m/s 696 mmHg 66%
    02:00 +22°C° 0 mm 7 m/s 696 mmHg 64%
    03:00 +22°C° 0 mm 6 m/s 697 mmHg 63%
    04:00 +21°C° 0 mm 6 m/s 697 mmHg 62%
    05:00 +22°C° 0 mm 5 m/s 697 mmHg 59%
    06:00 +22°C° 0 mm 5 m/s 698 mmHg 56%
    07:00 +23°C° 0 mm 5 m/s 699 mmHg 53%
    08:00 +26°C° 0 mm 5 m/s 699 mmHg 47%
    09:00 +27°C° 0 mm 5 m/s 699 mmHg 41%
    10:00 +29°C° 0 mm 5 m/s 699 mmHg 36%
    11:00 +30°C° 0 mm 5 m/s 699 mmHg 33%
    12:00 +32°C° 0 mm 5 m/s 699 mmHg 31%
    13:00 +33°C° 0 mm 5 m/s 699 mmHg 28%
    14:00 +33°C° 0 mm 5 m/s 698 mmHg 28%
    15:00 +33°C° 0 mm 4 m/s 698 mmHg 28%
    16:00 +33°C° 0 mm 4 m/s 698 mmHg 27%
    17:00 +32°C° 0 mm 4 m/s 698 mmHg 29%
    18:00 +30°C° 0 mm 3 m/s 699 mmHg 31%
    19:00 +30°C° 0 mm 2 m/s 699 mmHg 33%
    20:00 +29°C° 0 mm 2 m/s 700 mmHg 34%
    21:00 +29°C° 0 mm 2 m/s 700 mmHg 36%
    22:00 +28°C° 0 mm 2 m/s 701 mmHg 37%
    23:00 +27°C° 0 mm 2 m/s 700 mmHg 39%

    14 Dezembro, Quinta-feira

    Tempo Temperatura Precipitação Vento Pressão Humidade
    00:00 +27°C° 0 mm 1 m/s 700 mmHg 41%
    01:00 +26°C° 0 mm 1 m/s 699 mmHg 43%
    02:00 +26°C° 0 mm 1 m/s 699 mmHg 44%
    03:00 +25°C° 0 mm 1 m/s 699 mmHg 45%
    04:00 +25°C° 0 mm 1 m/s 699 mmHg 45%
    05:00 +26°C° 0 mm 1 m/s 700 mmHg 42%
    06:00 +27°C° 0 mm 1 m/s 700 mmHg 39%
    07:00 +28°C° 0 mm 1 m/s 701 mmHg 36%
    08:00 +29°C° 0 mm 2 m/s 701 mmHg 33%
    09:00 +31°C° 0 mm 2 m/s 700 mmHg 30%
    10:00 +33°C° 0 mm 3 m/s 700 mmHg 27%
    11:00 +34°C° 0 mm 3 m/s 700 mmHg 25%
    12:00 +35°C° 0 mm 4 m/s 699 mmHg 23%
    13:00 +36°C° 0 mm 4 m/s 699 mmHg 22%
    14:00 +36°C° 0 mm 4 m/s 698 mmHg 21%
    15:00 +37°C° 0 mm 4 m/s 698 mmHg 20%
    16:00 +37°C° 0 mm 4 m/s 698 mmHg 19%
    17:00 +36°C° 0 mm 4 m/s 698 mmHg 20%
    18:00 +35°C° 0 mm 3 m/s 698 mmHg 21%
    19:00 +34°C° 0 mm 2 m/s 698 mmHg 22%
    20:00 +32°C° 0 mm 2 m/s 699 mmHg 24%
    21:00 +31°C° 0 mm 2 m/s 699 mmHg 26%
    22:00 +31°C° 0 mm 2 m/s 699 mmHg 28%
    23:00 +30°C° 0 mm 3 m/s 699 mmHg 30%

    15 Dezembro, Sexta-feira

    Tempo Temperatura Precipitação Vento Pressão Humidade
    00:00 +29°C° 0 mm 3 m/s 699 mmHg 31%
    01:00 +28°C° 0 mm 4 m/s 698 mmHg 33%
    02:00 +28°C° 0 mm 4 m/s 698 mmHg 36%
    03:00 +27°C° 0 mm 4 m/s 698 mmHg 39%
    04:00 +26°C° 0 mm 5 m/s 697 mmHg 42%
    05:00 +27°C° 0 mm 5 m/s 698 mmHg 39%
    06:00 +28°C° 0 mm 5 m/s 698 mmHg 36%
    07:00 +29°C° 0 mm 5 m/s 698 mmHg 33%
    08:00 +30°C° 0 mm 5 m/s 698 mmHg 31%
    09:00 +32°C° 0 mm 5 m/s 698 mmHg 29%
    10:00 +33°C° 0 mm 4 m/s 697 mmHg 27%
    11:00 +34°C° 0 mm 4 m/s 697 mmHg 26%
    12:00 +35°C° 0 mm 3 m/s 696 mmHg 25%
    13:00 +36°C° 0 mm 3 m/s 695 mmHg 24%
    14:00 +36°C° 0 mm 3 m/s 695 mmHg 24%
    15:00 +37°C° 0 mm 3 m/s 694 mmHg 24%
    16:00 +37°C° 0 mm 3 m/s 694 mmHg 23%
    17:00 +36°C° 0 mm 3 m/s 694 mmHg 26%
    18:00 +35°C° 0 mm 2 m/s 694 mmHg 28%
    19:00 +35°C° 0 mm 2 m/s 694 mmHg 30%
    20:00 +34°C° 0 mm 2 m/s 694 mmHg 32%
    21:00 +34°C° 0 mm 2 m/s 694 mmHg 34%
    22:00 +32°C° 0 mm 2 m/s 694 mmHg 35%
    23:00 +31°C° 0 mm 2 m/s 694 mmHg 35%

    16 Dezembro, Sábado

    Tempo Temperatura Precipitação Vento Pressão Humidade
    00:00 +31°C° 0 mm 2 m/s 693 mmHg 34%
    01:00 +30°C° 0 mm 2 m/s 692 mmHg 33%
    02:00 +30°C° 0 mm 2 m/s 692 mmHg 31%
    03:00 +30°C° 0 mm 3 m/s 693 mmHg 30%
    04:00 +29°C° 0 mm 3 m/s 693 mmHg 29%
    05:00 +30°C° 0 mm 4 m/s 693 mmHg 27%
    06:00 +33°C° 0 mm 5 m/s 693 mmHg 25%
    07:00 +34°C° 0 mm 5 m/s 694 mmHg 24%
    08:00 +35°C° 0 mm 6 m/s 694 mmHg 23%
    09:00 +36°C° 0 mm 6 m/s 694 mmHg 21%
    10:00 +38°C° 0 mm 6 m/s 694 mmHg 20%
    11:00 +39°C° 0 mm 6 m/s 694 mmHg 20%
    12:00 +40°C° 0 mm 6 m/s 694 mmHg 19%
    13:00 +40°C° 0 mm 7 m/s 694 mmHg 18%
    14:00 +40°C° 0 mm 7 m/s 694 mmHg 19%
    15:00 +40°C° 0 mm 7 m/s 694 mmHg 20%
    16:00 +39°C° 0 mm 7 m/s 694 mmHg 21%
    17:00 +38°C° 0 mm 7 m/s 695 mmHg 24%
    18:00 +35°C° 0 mm 6 m/s 696 mmHg 27%
    19:00 +34°C° 0 mm 5 m/s 697 mmHg 29%
    20:00 +33°C° 0 mm 5 m/s 698 mmHg 29%
    21:00 +32°C° 0 mm 5 m/s 699 mmHg 29%
    22:00 +30°C° 0 mm 6 m/s 700 mmHg 29%
    23:00 +29°C° 0 mm 5 m/s 700 mmHg 27%
    Mostrar mais